Location: Kunchanapalle
(16.4623°N, 80.6176°E)
Time: 17:29:22
(UTC+00:00)

Cosmos 2084 Rocket - Pass Details

Date: 13 August 2020
Orbit: 549 x 631 km, 62.8° (Epoch: 19 September)

Event Time Altitude Azimuth Distance (km) Brightness Sun altitude
Rises 14:15:47 0° 196° (SSW) 2,703 6.8 -17.3°
Reaches altitude 10° 14:18:01 10° 192° (SSW) 1,813 5.9 -17.8°
Maximum altitude 14:21:59 55° 114° (ESE) 665 3.3 -18.7°
Drops below altitude 10° 14:26:01 10° 36° (NE) 1,836 5.8 -19.6°
Sets 14:28:17 0° 32° (NNE) 2,742 6.8 -20.1°
